Usor:IacobusAmor/100wikidays(2)

E Vicipaedia
Jump to navigation Jump to search

Centum dies: meta:100wikidays (2)[recensere | fontem recensere]

This is my second century in this challenge; it follows continuously from the first, making a total of 200 consecutive days. As before, in keeping with the strictest interpretation of the rules, each article was composed in the twenty-four hours before its posting—and in honor of Spiritia, who made the original challenge, the article posted on the hundredth day treats a topic relating to Bulgaria. In addition, each day features at least one article drawn from the list of 10 000 most important articles—of which, on 18 January 2020 (the last day of this series), 3330 were still missing from Vicipaedia.

Coding of columns in the sortable table:

  • No. = serial number of the day, with letters added for multiple articles added in one day.
  • # = serial number of the article.
  • Dies = date, given as ymd.
  • D = basic number in Dewey Decimal Classification.
  • Pagina = lemma in commentario definitum (the lemma defined in the article).
  • Praecipua paginae proprietas (special property of the page).
    • ‰ = una e 10 000 paginis maximi momenti (one of the 10,000 pages of greatest importance).
    • ± = commentarius ab alio factus, omnino retractatus (commentary begun by someone else but entirely revised, by more than doubling—often by more than quadrupling—the number of bytes).
  • Octeti = raw number of added bytes; it's not multiplied by the factors used for comparing the wikipedias on the 1000-word and 10,000-word lists at Meta (1.10 and 1.07, respectively).
No. # Dies D Pagina ± Octeti
1 1 20191011 303 Potestas (socialis et politica) 9227
2 2 20191012 155 Optimismus 8734
3a 3 20191013 153 Incitamentum 5612
3b 4 20191013 539 Boso Higgsianus ± 8403
4 5 20191014 152 Fletus 8696
5a 6 20191015 152 Misericordia 11876
5b 7 20191015 958 Media Asia ± 4290
6 8 20191016 303 Auctoritas (ius) 8442
7 9 20191017 150 Psychologia humanistica 10256
8 10 20191018 152 Miratio 5688
9a 11 20191019 152 Festivitas 9582
9b 12 20191019 152 Gelotologia 3766
9c 13 20191019 270 Risus sanctus 2300
10 14 20191020 152 Audacia 8550
11 15 20191021 152 Curiositas 6019
12a 16 20191022 746 Rete (instrumentum) 3065
12b 17 20191022 746 Rete papilionum 3212
12c 18 20191022 791 Inguiomerus Bergman ± 8163
13 19 20191023 152 Tristitia 9329
14 20 20191024 152 Fastidium 10136
15 21 20191025 152 Odium 4085
16 22 20191026 152 Culpa (animi motus) 6331
17 23 20191027 152 Zelus 10167
18 24 20191028 153 Attentio 9297
19 25 20191029 152 Pudor 8228
20 26 20191030 152 Timiditas 8224
21 27 20191031 155 Psychologia auctus 12563
22 28 20191101 302 Convenientia 8822
23a 29 20191102 152 Empathia 6141
23b 30 20191102 152 Generativitas 2891
23c 31 20191102 595 Pisa (genus) 2133
23d 32 20191102 595 Pisinae 4566
23e 33 20191102 616 Scopophobia 4294
24 34 20191103 642 Furca (cibus) 11628
25 35 20191104 642 Cochlear (instrumentum) 6063
26 36 20191105 641 Nux avellana 6633
27 37 20191106 641 Iuglans (nux) 9948
28a 38 20191107 567 Erepsilepis 1845
28b 39 20191107 567 Phlebolepididae 2063
28c 40 20191107 567 Phlebolepis 2528
28d 41 20191107 917 Archipelagus Arcticus 29071
29 42 20191108 917 Sinus Baffin 11051
30a 43 20191109 152 Ira ± 2163
30b 44 20191109 782 Beverly Sills 9175
30c 45 20191109 813 Philippus Kindred Dick ± 3252
31 46 20191110 782 Leontyne Price 8506
32 46 20191111 782 Dolly Parton 9862
33 47 20191112 782 Haroldus Arlen 19174
34 48 20191113 940 Historia Europae 28928
35 49 20191114 989 Historia Paraguaiae 5589
36 50 20191115 947 Historia Estoniae 10151
37 51 20191116 947 Historia Latviae 11670
38 52 20191117 947 Historia Lituaniae 10361
39 53 20191118 948 Historia Daniae 15733
40 54 20191119 201 Theophania 8776
41 55 20191120 338 Balaenatio 12246
42 56 20191121 027 Bibliotheca Civica Russiae 8060
43 57 20191122 027 Bibliotheca Publica Bostoniensis 8685
44a 58 20191123 027 Bibliotheca Publica Novi Eboraci 13248
44b 59 20191123 780 Ioannes Tasker Howard 3427
45a 60 20191124 027 Bibliotheca publica 10969
45b 61 20191124 027 Bibliotheca Nationalis Australiae 10674
45c 62 20191124 027 Bibliotheca Parlamentaria Australiae 3239
46 63 20191125 027 Bibliotheca Nationalis Ucrainae Vernadskiana 8877
47a 64 20191126 027 Bibliotheca nationalis 6183
47b 65 20191126 027 Bibliotheca Europaea 8279
47c 66 20191126 027 Bibliotheca Nationalis Indiae 5702
48 67 20191127 027 Bibliotheca Nationalis Sinarum 10444
49a 68 20191128 394 Dies Gratulationis (Civitates Foederatae) 13078
49b 69 20191128 917 Magnus Servorum Lacus 8362
50 70 20191129 027 Bibliotheca Nationalis Coreae 3520
51a 71 20191130 027 Bibliotheca Diaetae Nationalis 5439
51b 72 20191130 738 Dunt 3152
52 73 20191201 027 Bibliotheca Nationalis Hispaniae 10390
53 74 20191202 111 Bonum (ethica) 8838
54 75 20191203 150 Eduardus Thorndike 14447
55 76 20191204 286 Carolus Spurgeon 12291
56 77 20191205 398 Baba Iaga 6178
57 78 20191206 581 Liana 11800
58 79 20191207 618 Beniaminus Spock 7371
59 80 20191208 797 Marcus Spitz 5874
60 81 20191209 868 Michael de Unamuno 31210
61 82 20191210 959 Sulavesia 32446
62 83 20191211 006 HTML 4296
63 84 20191212 155 Temperamentum 7052
64 85 20191213 200 Apologetica 9445
65a 86 20191214 301 Indigenae Australiani 15684
65b 87 20191214 799 Boomerang ± 1850
66a 88 20191215 595 Acronicta psi 3994
66b 89 20191215 595 Agonochaetia 1463
66c 90 20191215 595 Gelechiidae 5802
66d 91 20191215 595 Gelechiinae 18634
66e 92 20191215 595 Geometridae 12632
66f 93 20191215 595 Scrobipalpula 5536
66g 94 20191215 595 Scrobipalpula daturae 923
66h 95 20191215 595 Scrobipalpula omicron 983
66i 96 20191215 595 Vladimirea 1881
67 97 20191216 684 Charta abrasiva 4112
68 98 20191217 709 Fraternitas Prae-Raphaelitica 10344
69a 99 20191218 863 Cien años de soledad 9261
69b 100 20191218 863 El amor en los tiempos del cólera 2130
70 101 20191219 982 Historia Argentinae 12928
71 102 20191220 069 Museum Nationale Anthropologiae (Mexicum) 10514
72 103 20191221 150 Curtius Lewin 9268
73a 104 20191222 294 Prabhupada 16921
73b 105 20191222 294 Vaishnavismus 17831
74 106 20191223 332 Deflatio monetalis 8660
75a 107 20191224 595 Aphidoidea 8841
75b 108 20191224 595 Aphidomorpha 2679
75c 109 20191224 595 Dolichoderinae 5330
75d 110 20191224 595 Dolichoderus 16424
75e 111 20191224 595 Dolichoderus attelaboides 1780
75f 112 20191224 595 Dolichoderus omicron 1535
75g 113 20191224 595 Tapinoma 6847
75h 114 20191224 595 Tapinoma aberrans 922
75i 115 20191224 595 Tapinoma krakatauae 1111
75j 116 20191224 595 Tapinomini 1566
76a 117 20191225 565 Tapinoma aberrans (Dlussky) 1602
76b 118 20191225 595 Tapinoma acuminatum 1064
76c 119 20191225 595 Tapinoma erraticum 1451
76d 120 20191225 637 Pasteurizatio 8666
77 121 20191226 780 Musica classica saeculi 20 36309
78a 122 20191227 895 Iter in occidentem 6677
78b 123 20191227 895 Monkey (mythistoria) 2439
79 124 20191228 948 Historia Scandinaviae 9648
80 125 20191229 005 OpenVMS 8550
81 126 20191230 152 Animi habitus 9244
82a 127 20191231 294 Om 9101
82b 128 20191231 294 Saktismus 18287
82c 129 20191231 294 Sivaismus 19886
83 130 20200101 321 Mandatum caeli 5463
84a 131 20200102 410 Elizabetha Hazelton Haight 3691
84b 132 20200102 410 Edmundus Taite Silk 1638
84c 133 20200102 512 Algebra homologica 5820
85 134 20200103 641 Furnulus 8077
86 135 20200104 781 Musica rustica 17093
87 136 20200105 823 Gulliver's Travels 9464
88 137 20200106 949 Historia Nederlandiae 20042
89a 138 20200107 005 Elementum corporis programmatum tertiarium 1766
89b 139 20200107 005 Systemata interna Macintosh 2323
90 140 20200108 152 Incursio 11921
91 141 20200109 294 Isvara 5764
92 142 20200110 378 Universitas Petri Mariaeque Curie 10186
93a 143 20200111 410 Haroldus Whetstone Johnston 1701
93b 144 20200111 512 Isomorphismus 5649
94 145 20200112 628 Turris aquaria 8234
95a 146 20200113 781 Jazz liberum 7792
95b 147 20200113 785 Fridericus Chopin ± 13991
96 148 20200114 895 Margo Aquae 8204
97 149 20200115 941 Historia Scotiae 35248
98 150 20200116 005 Berkeley Software Distribution 8481
99 151 20200117 171 Conscientia (moralis) 8372
100 152 20200118 949 Primum imperium Bulgaricum 17447